Showing default

DSX, 44344

Orbit data source: Space-Track

DSX, 44344 is a payload satellite owned by AFRL/RV (US) that was launched on Tue, 25 Jun 2019 UTC via an FALCON HEAVY launch vehicle from the Air Force Eastern Test Range (AFETR). Payloads include a variety of satellites, spacecraft, and rockets equipped with specific instruments for various scientific and technological missions. These include communications satellites like Starlink; space stations such as the ISS; scientific satellites like the Hubble; Earth observation satellites from companies like Planet Labs, Umbra, and HawkEye 360; GPS; miniature CubeSats for education and research; and military/defense satellites.

Loading next visibility...
DSX details
Identifier
44344, 2019-036F
Orbit
Active
Last TLE update3 days ago
Origin
Flag of USAFRL/RV (US)
ManufacturerMicrosatSystems
MissionOperational Defense Technology
Bus & MotorESPA, Unknown motor
Mass668 kg wet, 668 kg dry
Launch date (UTC)
2019-06-25 (6 years ago)
Launch vehicle
FALCON HEAVY
Launch site
Air Force Eastern Test Range (AFETR)
Object type
Payload
Rocket body
Debris
Shape & HBRIrr + 1 Ant, 54 m
Radar Cross Section11.357 m², Large (>1 m²)

Expand to show TLE details & history

TLE from 3 days ago
0 DSX
1 44344U 19036F   24358.82088054  .00000030  00000-0  00000-0 0  9998
2 44344  42.1918 188.3432 1964261 143.1685 232.1283  4.54375613 91236
Epoch: 2024-12-23T19:42Z
Definitive object data (Epoch: 2024-12-23T19:42:04.078Z)
Latitude-0.00001°
Longitude159.99237°
Altitude11,184.254 km
Speed4.417 km/s
True Right ascension12h 33m 23s
True Declination0° 00' 00"
Sunlit
Object was in daylight at TLE epoch
Visualization TLE readout
Latitude-38.37602°
Longitude98.27284°
Altitude11,404.889 km
Speed4.355 km/s
Apparent Right ascension07h 08m 13s
Apparent Declination-45° 54' 60"
Sunlit
Object is in daylight
Visualization observer readout
Local Sidereal Time14:18:12
Azimuth237.867° WSW
Elevation-38.413°
Doppler factor1
Orbital elements
Apogee altitude12,045.371 km
Perigee altitude5,995.924 km
Semi-major axis15,398.785 km
Eccentricity0.1964261
Inclination42.1918°
RAAN188.3432°
Arg. of periapsis143.1685°
True anomaly216.87477°
Mean anomaly232.1283°
Eccentric anomaly224.272°
Mean motion1.13583 °/min
BSTARUnknown
Orbital period316.95 mins
Loading maneuver chart data...
Loading historical data...
Loading historical data...
Loading historical data...
Loading historical data...
Loading historical data...
Loading historical data...
Loading historical data...

DSX Visibility forecast

Observer location: undefined°, undefined

Span
Click to sort rows by Start time (UTC) header in descending order
Start Az.
Max El. time (UTC)
Max El. Az.
Max El.
End time (UTC)
End Az.
103 mins2024-12-26 16:21:16.558Z240.428° WSW2024-12-26 17:28:16.558Z173.126° S44.998°2024-12-26 18:04:16.558Z78.506° E
65 mins2024-12-26 22:52:16.558Z295.601° NW2024-12-26 23:26:16.558Z221.47° SW40.935°2024-12-26 23:57:16.558Z149.669° SSE
116 mins2024-12-27 12:56:16.558Z200.124° SSW2024-12-27 14:10:16.558Z133.025° SE40.53°2024-12-27 14:52:16.558Z63.584° ENE
|